Date,TemperatureHighF,TemperatureAvgF,TemperatureLowF,DewpointHighF,DewpointAvgF,DewpointLowF,HumidityHigh,HumidityAvg,HumidityLow,PressureMaxIn,PressureMinIn,WindSpeedMaxMPH,WindSpeedAvgMPH,GustSpeedMaxMPH,PrecipitationSumIn
2013-1-1,27,21,16,15,9,4,74,59,43,30.15,30.06,3,1,4,0.00
2013-1-2,32,23,15,16,11,4,69,59,48,30.15,30.03,5,2,8,0.00
2013-1-3,33,29,22,26,21,15,78,72,65,30.19,30.02,3,1,5,0.00
2013-1-4,38,28,18,24,18,11,76,69,53,30.18,30.04,4,2,6,0.00
2013-1-5,41,36,28,33,30,22,85,77,63,30.15,29.88,5,2,8,0.01
2013-1-6,38,33,26,34,25,20,84,74,64,30.27,29.84,3,1,6,0.00
2013-1-7,42,32,24,27,23,18,81,71,53,30.27,30.04,9,3,15,0.00
2013-1-8,47,37,30,32,28,25,79,70,56,30.11,29.96,8,2,10,0.00
2013-1-9,50,42,34,33,27,21,77,57,33,30.43,29.94,7,2,10,0.00
2013-1-10,45,39,31,41,30,23,90,71,56,30.45,29.85,4,1,6,0.38
2013-1-11,54,51,44,52,48,41,94,88,83,29.85,29.60,11,3,12,0.24
2013-1-12,54,47,33,48,38,27,85,72,55,29.92,29.66,7,2,9,0.02
2013-1-13,33,28,19,29,22,10,87,78,68,30.17,29.79,3,1,5,0.02
2013-1-14,29,22,16,15,12,8,74,65,51,30.37,30.17,1,0,3,0.01
2013-1-15,35,26,19,22,16,12,75,65,50,30.37,30.05,2,0,4,0.00
2013-1-16,38,31,23,28,21,15,76,66,52,30.05,29.75,6,2,9,0.00
2013-1-17,36,30,24,29,14,6,76,53,36,30.34,29.98,3,1,5,0.00
2013-1-18,44,34,23,30,23,13,69,63,54,30.36,29.85,13,3,17,0.00
2013-1-19,50,43,30,37,31,11,69,62,40,29.87,29.66,7,3,10,0.00
2013-1-20,30,21,16,12,5,2,56,49,42,30.24,29.84,5,1,10,0.00
2013-1-21,18,13,7,4,-2,-8,62,51,41,30.20,30.06,3,2,6,0.00
2013-1-22,15,10,2,-2,-5,-8,62,52,44,30.32,30.20,3,1,4,0.00
2013-1-23,24,19,12,15,6,-2,71,58,50,30.27,30.04,7,1,10,0.00
2013-1-24,27,18,10,15,4,-2,65,56,45,30.55,30.26,5,1,7,0.00
2013-1-25,31,27,23,21,16,9,72,63,50,30.32,29.92,4,2,8,0.00
2013-1-26,31,25,16,19,12,8,70,60,44,30.34,30.11,3,1,6,0.03
2013-1-27,39,33,28,36,25,18,87,71,60,30.32,29.86,6,2,8,0.00
2013-1-28,52,46,39,48,42,36,92,85,71,29.91,29.75,6,1,7,0.49
2013-1-29,63,57,41,58,54,38,94,90,83,29.77,29.35,6,2,8,0.37
2013-1-30,44,36,24,42,33,17,94,89,74,29.56,29.14,3,1,7,0.10
2013-1-31,24,18,9,18,9,0,77,67,59,30.07,29.56,7,2,10,0.00